Location: Champignolles
(47.0543°N, 4.5663°E)
Time: 14:28:15
(UTC+00:00)

NOAA 6 - Pass Details

Date: 30 November 2020
Orbit: 773 x 786 km, 98.7° (Epoch: 27 January)

Event Time Altitude Azimuth Distance (km) Brightness Sun altitude
Rises 16:51:16 0° 172° (S) 3,254 7.4 -9.4°
Reaches altitude 10° 16:53:35 10° 174° (S) 2,328 6.7 -9.8°
Maximum altitude 16:58:42 67° 258° (WSW) 845 4.5 -10.6°
Drops below altitude 10° 17:03:50 10° 341° (NNW) 2,337 6.5 -11.4°
Sets 17:06:11 0° 344° (NNW) 3,267 7.2 -11.8°
